Weather History for KSWO - June, 2013

Change the Weather History Date:

Sunday, June 2, 2013

  Actual Average Record
Temperature  
Mean Temperature 64 °F -  
Max Temperature 75 °F 81 °F 100 °F (1998)
Min Temperature 55 °F 59 °F 50 °F (1997)
Degree Days  
Heating Degree Days 1    
Growing Degree Days 14 (Base 50)    
Moisture  
Dew Point 53 °F    
Average Humidity 69    
Maximum Humidity 90    
Minimum Humidity 46    
Precipitation  
Precipitation 0.00 in - - ()
Sea Level Pressure  
Sea Level Pressure 30.05 in    
Wind  
Wind Speed 8 mph (North)    
Max Wind Speed 14 mph    
Max Gust Speed 21 mph    
Visibility 10 miles    
Events      
Averages and records for this station are not official NWS values.
T = Trace of Precipitation, MM = Missing Value Source: NWS Daily Summary

Daily Weather History Graph

Daily Weather History Graph

Search for Another Location

Airport or City:

Trip Planner

Search our weather history database for the weather conditions in past years. The results will help you decide how hot, cold, wet, or windy it might be!

Date:

Astronomy

Jun. 02, 2013 Rise Set
Actual Time 6:12 AM CDT 8:40 PM CDT
Civil Twilight 5:42 AM CDT 9:10 PM CDT
Nautical Twilight 5:05 AM CDT 9:47 PM CDT
Astronomical Twilight 4:24 AM CDT 10:28 PM CDT
Moon 2:30 AM CDT (6/2) 3:21 PM CDT (6/2)
Length of Visible Light 15h 28m
Length of Day
14h 28m
Waning Crescent, 30% of the Moon is Illuminated
Jun 2
Waning Crescent
Jun 8
New
Jun 16
First Quarter
Jun 23
Full
Jun 29
Last Quarter

Hourly Weather History & Observations

Time (CDT) Temp. Dew Point Humidity Pressure Visibility Wind Dir Wind Speed Gust Speed Precip Events Conditions
12:53 AM 62.1 °F 57.0 °F 84% 30.02 in 10.0 mi North 8.1 mph - N/A   Clear
1:53 AM 59.0 °F 55.9 °F 90% 30.04 in 10.0 mi North 6.9 mph - N/A   Clear
2:53 AM 59.0 °F 54.0 °F 83% 30.04 in 10.0 mi North 4.6 mph - N/A   Clear
3:53 AM 57.9 °F 52.0 °F 81% 30.04 in 10.0 mi NNW 5.8 mph - N/A   Clear
4:53 AM 55.9 °F 51.1 °F 84% 30.06 in 10.0 mi NNW 5.8 mph - N/A   Clear
5:53 AM 55.0 °F 50.0 °F 83% 30.07 in 10.0 mi NW 6.9 mph - N/A   Clear
6:53 AM 55.0 °F 50.0 °F 83% 30.09 in 10.0 mi NW 8.1 mph - N/A   Clear
7:53 AM 57.9 °F 51.1 °F 78% 30.10 in 10.0 mi NNW 9.2 mph - N/A   Clear
8:53 AM 61.0 °F 51.1 °F 70% 30.11 in 10.0 mi North 9.2 mph - N/A   Clear
9:53 AM 63.0 °F 52.0 °F 67% 30.11 in 10.0 mi NNW 9.2 mph - N/A   Clear
10:53 AM 66.0 °F 51.1 °F 59% 30.12 in 10.0 mi NNW 9.2 mph - N/A   Clear
11:53 AM 68.0 °F 52.0 °F 56% 30.11 in 10.0 mi North 13.8 mph 18.4 mph N/A   Clear
12:53 PM 69.1 °F 51.1 °F 53% 30.09 in 10.0 mi North 13.8 mph 20.7 mph N/A   Clear
1:53 PM 70.0 °F 51.1 °F 51% 30.08 in 10.0 mi North 6.9 mph 18.4 mph N/A   Clear
2:53 PM 72.0 °F 52.0 °F 49% 30.05 in 10.0 mi North 13.8 mph 17.3 mph N/A   Clear
3:53 PM 73.0 °F 51.1 °F 46% 30.03 in 10.0 mi North 6.9 mph - N/A   Clear
4:53 PM 73.0 °F 51.1 °F 46% 30.01 in 10.0 mi NNE 9.2 mph - N/A   Clear
5:53 PM 73.9 °F 52.0 °F 46% 30.00 in 10.0 mi NNW 4.6 mph - N/A   Clear
6:53 PM 71.1 °F 53.1 °F 53% 29.99 in 10.0 mi ENE 8.1 mph - N/A   Clear
7:53 PM 69.1 °F 55.0 °F 61% 29.99 in 10.0 mi ENE 4.6 mph - N/A   Clear
8:53 PM 64.0 °F 55.9 °F 75% 29.98 in 10.0 mi NE 8.1 mph - N/A   Clear
9:53 PM 61.0 °F 55.9 °F 83% 30.00 in 10.0 mi East 5.8 mph - N/A   Clear
10:53 PM 61.0 °F 55.0 °F 81% 30.01 in 10.0 mi East 6.9 mph - N/A   Clear
11:53 PM 59.0 °F 55.0 °F 87% 30.01 in 10.0 mi East 5.8 mph - N/A   Clear